Theta_e
326 326 326 327 327 327 325 324 324 324 324 324 324 325 327 327 327 328 327 326 326 326 326 325 326 326 328 327 327 328 327 327 327 325 326 325 323 323 324 321 320 321
325 325 325 327 327 327 326 325 325 324 324 324 325 325 325 326 327 327 325 324 324 324 324 324 324 325 325 324 324 324 323 324 325 328 326 325 323 324 323 323 322 320
325 324 324 325 326 326 325 325 325 324 324 325 324 324 325 325 325 324 324 323 321 321 322 322 322 324 324 324 324 324 324 323 324 324 325 325 323 324 323 322 322 323
324 324 324 325 325 326 325 324 324 325 323 324 324 324 325 324 323 322 323 325 320 320 320 321 322 323 324 323 323 322 323 324 324 324 323 322 323 324 323 322 320 320
324 324 326 325 325 326 325 325 324 325 325 324 323 323 323 322 322 321 320 320 320 319 320 320 320 321 322 322 322 321 320 321 320 323 322 321 321 324 322 323 321 321
325 326 326 326 326 326 325 324 324 324 324 323 323 323 322 321 320 320 320 319 319 320 318 317 319 319 321 320 320 320 321 321 318 319 320 321 320 320 326 323 322 320
326 325 325 325 325 324 324 324 324 324 323 323 323 322 321 320 320 320 319 320 319 319 318 315 317 317 318 319 319 318 317 318 317 319 320 318 319 318 323 323 322 321
325 325 325 324 324 323 324 324 324 323 323 323 322 321 321 320 319 319 319 320 319 318 316 316 317 318 317 317 318 315 314 316 316 315 316 316 315 317 318 323 321 321
323 324 324 323 323 323 323 324 323 323 323 322 321 319 319 320 319 319 319 319 318 317 316 315 317 316 315 316 315 315 313 313 314 313 313 314 315 317 320 319 319 320
322 323 323 323 322 323 323 324 324 323 323 322 321 319 319 319 319 319 319 318 318 316 316 316 316 316 315 314 313 312 310 312 312 311 313 315 317 317 319 319 319 318
321 322 323 322 322 323 324 324 324 323 322 321 320 319 318 318 318 318 318 317 318 316 316 316 316 315 314 312 312 310 311 312 311 312 313 315 317 318 323 319 319 319
320 321 321 322 322 323 323 323 323 323 322 321 321 319 318 318 317 317 317 317 317 317 316 316 315 315 314 312 311 312 312 311 311 312 315 316 317 319 319 319 319 317
319 319 318 320 322 322 322 322 322 322 321 320 321 320 317 317 317 316 316 316 317 317 316 316 314 314 313 313 313 312 312 312 312 313 315 316 315 315 316 316 317 316
317 318 318 319 321 322 322 321 321 321 321 320 320 319 317 317 316 316 314 314 314 314 312 312 311 310 310 312 314 313 312 312 313 313 314 314 314 315 314 314 313 313
317 317 319 320 320 321 321 320 320 320 319 319 319 318 318 317 316 314 313 313 312 311 309 309 307 306 305 306 313 314 313 314 315 315 316 315 315 314 314 314 314 314
318 318 320 319 319 319 319 318 318 318 319 318 318 318 317 315 315 314 313 311 309 308 307 306 305 304 302 301 308 316 316 316 315 315 316 315 315 315 315 316 317 318
318 318 318 317 317 318 317 316 316 317 317 316 316 315 315 315 314 312 311 310 308 306 305 303 302 301 297 297 304 308 316 317 316 315 315 315 315 316 315 315 314 316
316 317 317 317 318 317 317 316 316 316 316 316 316 316 316 314 312 310 309 308 307 305 304 302 300 297 294 296 302 305 310 317 317 316 316 316 316 316 316 315 315 316
316 315 315 315 315 315 315 315 316 316 316 317 317 316 314 312 310 309 308 306 305 303 302 301 299 295 294 297 300 301 305 312 316 316 317 316 316 316 315 314 313 315
315 313 312 312 313 315 316 316 315 315 315 316 316 315 313 311 309 308 306 304 303 302 300 299 298 295 294 298 300 301 304 309 317 315 315 317 317 316 316 315 314 314
314 312 312 312 312 313 314 314 314 314 314 314 315 314 312 310 308 306 305 303 302 302 300 298 296 293 293 297 301 302 303 307 317 317 316 316 315 315 315 316 316 316
313 312 312 312 312 313 313 312 313 313 314 315 315 314 312 310 308 305 303 302 301 300 300 299 297 293 293 295 299 301 305 316 317 317 317 317 316 316 315 315 316 315
311 312 312 311 311 312 312 312 312 312 313 313 312 310 308 306 304 303 302 301 301 301 300 298 297 294 293 295 297 302 308 317 317 316 316 315 313 309 306 307 309 309
309 309 310 310 312 310 311 312 311 312 312 312 310 307 305 304 302 301 301 300 299 299 298 297 296 295 293 294 295 297 306 314 314 315 313 310 306 304 302 302 303 307
307 308 308 309 310 311 312 312 312 312 312 311 309 307 305 304 302 301 300 299 299 299 300 297 296 296 293 293 294 295 302 306 308 310 310 307 304 302 302 301 300 299
302 303 305 307 309 310 310 310 311 312 311 309 307 306 304 303 302 301 299 299 299 297 297 296 296 295 294 293 294 294 297 303 304 307 307 307 305 302 300 299 299 298
Wind_Speed
6 6 8 6 5 6 7 6 5 6 6 5 6 6 6 6 4 6 5 4 5 5 4 5 4 4 5 5 5 5 5 5 5 4 4 4 4 4 4 4 4 5
6 4 2 2 3 4 4 5 6 6 6 5 5 5 4 4 5 5 5 5 5 5 5 5 5 6 5 5 5 5 4 4 4 3 4 4 4 4 4 5 5 3
5 5 5 4 5 3 1 1 4 4 5 4 3 3 4 3 5 4 6 6 6 6 6 5 5 6 6 5 5 5 5 5 5 4 5 5 4 5 4 4 4 5
6 7 7 4 5 8 6 1 3 3 3 4 3 3 4 4 5 5 5 5 5 5 5 5 5 5 6 5 5 5 5 5 5 5 4 3 4 5 4 3 3 3
8 7 5 6 5 6 8 9 4 3 6 6 5 4 6 6 5 5 5 4 5 4 4 5 4 5 5 5 5 5 4 5 4 5 5 4 3 4 4 4 3 4
7 7 6 7 7 7 7 5 5 3 5 8 8 7 7 6 6 6 5 5 4 5 4 4 4 4 5 5 5 5 4 4 3 4 4 4 3 2 4 4 4 4
8 9 8 6 6 6 7 8 8 6 6 7 7 7 7 7 7 6 5 5 4 4 4 4 5 4 4 4 4 4 3 4 4 4 5 4 4 3 2 4 4 4
7 7 7 6 8 9 8 7 10 10 8 7 8 7 7 7 7 5 5 5 4 4 4 4 5 5 4 4 5 4 4 3 5 4 4 4 4 4 4 4 4 4
5 6 7 8 9 8 9 9 11 10 8 9 8 6 6 8 7 6 5 5 4 4 4 4 5 5 5 5 5 5 4 3 3 5 5 5 4 4 4 3 4 4
5 6 8 9 9 9 11 9 11 10 8 9 8 7 8 6 7 6 6 5 4 4 4 4 5 4 5 5 5 4 4 5 4 4 6 5 5 4 4 4 4 4
5 6 9 9 9 9 10 9 9 9 7 9 8 7 7 6 5 5 5 5 5 4 4 4 4 4 4 4 4 4 4 4 4 4 5 5 5 5 5 4 4 4
6 6 7 8 9 8 8 7 9 9 8 7 8 8 6 6 6 5 5 5 5 4 4 4 4 4 4 4 4 3 3 3 3 5 5 5 4 4 4 4 4 3
2 3 2 1 6 10 9 7 7 8 8 7 7 8 7 6 6 6 5 6 5 4 4 4 4 3 3 2 3 3 3 3 4 4 5 4 3 3 4 4 5 5
1 4 2 1 3 1 5 7 7 7 6 6 6 7 7 6 7 7 4 4 4 5 5 4 5 5 4 3 2 4 4 4 4 6 6 6 6 5 6 6 7 7
4 4 5 5 2 2 2 1 6 6 6 6 6 6 5 5 5 7 8 8 7 7 7 6 6 5 3 2 2 3 4 5 6 7 8 8 7 7 6 6 6 7
7 4 6 5 4 4 1 5 1 6 6 6 6 6 5 7 8 8 9 9 8 7 7 6 6 4 5 4 1 4 5 6 7 7 7 8 8 8 6 5 5 5
7 6 6 6 6 5 2 2 2 5 4 5 4 6 8 8 10 10 9 8 8 8 9 7 5 4 9 7 4 11 9 8 9 7 6 7 7 7 6 5 3 3
7 6 7 7 7 6 4 2 2 5 6 6 8 9 8 10 11 10 8 8 8 8 9 6 5 7 7 6 8 15 12 9 8 7 6 6 6 6 5 4 4 5
8 7 6 5 5 7 7 3 4 7 8 9 9 9 9 11 10 10 9 7 9 10 8 6 6 8 7 7 10 12 14 11 7 7 7 6 5 5 4 4 3 6
6 9 8 6 5 8 9 6 7 8 8 9 10 10 12 11 10 10 8 8 8 9 8 6 6 8 8 8 10 13 14 11 7 6 6 6 5 3 4 4 3 4
7 8 10 8 6 7 9 8 7 8 7 8 10 10 11 10 9 9 7 7 7 7 8 9 6 9 8 8 8 13 14 12 9 8 5 7 5 3 2 2 4 5
8 7 8 7 8 9 9 10 8 7 11 6 11 10 10 10 9 8 8 8 7 8 9 9 8 11 8 8 5 8 12 9 8 8 5 6 4 4 6 6 6 6
7 7 6 6 5 8 11 8 9 7 10 7 10 11 11 10 9 8 7 7 8 9 10 8 8 11 10 10 10 9 10 8 7 6 6 6 6 6 7 8 8 7
7 7 7 6 7 7 6 8 7 6 6 8 9 9 11 9 10 10 9 9 10 10 8 9 8 11 12 13 13 12 7 7 6 8 8 8 7 6 7 8 10 15
8 8 7 7 7 6 5 7 8 8 6 7 8 9 10 8 8 10 8 8 11 11 12 10 8 9 13 14 14 12 7 5 7 8 8 6 6 6 6 6 6 7
8 9 8 7 6 7 7 7 5 7 8 9 8 8 10 9 9 10 12 10 9 8 6 6 8 8 12 16 14 13 10 6 5 8 8 6 5 5 6 5 5 4
Wind_Direction
167 177 180 175 166 165 162 168 176 176 183 176 177 183 181 191 174 173 170 159 171 165 162 166 162 160 149 144 145 141 154 161 154 152 153 146 139 149 171 163 173 180
168 159 136 144 124 138 154 165 174 180 187 184 184 170 178 167 173 157 149 154 151 151 156 165 170 156 149 144 144 138 144 147 154 150 144 153 151 149 172 180 176 167
138 136 164 187 166 132 114 155 178 188 181 190 154 154 154 152 141 140 144 146 139 138 138 140 137 147 149 148 142 140 149 153 147 147 144 161 149 153 175 168 154 171
157 160 176 151 127 119 105 31 286 183 157 144 160 162 139 130 127 130 134 131 128 125 122 114 126 136 144 145 137 141 153 153 151 139 139 141 159 159 168 151 143 153
173 160 154 149 144 132 137 156 193 221 165 162 146 143 126 125 124 123 124 124 124 124 112 109 112 129 132 136 136 135 145 143 131 129 140 162 179 163 161 146 151 168
175 162 164 161 163 150 144 142 120 263 189 152 155 144 137 139 136 136 133 131 133 125 117 109 113 138 133 130 128 137 146 143 136 128 142 168 185 181 151 160 158 176
170 165 166 145 129 125 137 152 148 190 221 156 142 141 144 139 139 141 140 139 130 127 133 117 128 142 134 131 132 143 150 154 142 154 163 175 156 182 169 157 174 182
167 160 156 140 140 155 158 165 153 172 197 146 146 149 140 138 137 140 139 134 125 139 122 127 138 144 142 138 147 152 158 140 142 150 160 165 155 152 164 170 163 175
168 159 153 150 156 162 164 167 159 171 173 144 142 143 136 139 143 143 146 134 128 134 126 143 133 135 145 144 153 151 143 164 171 151 153 162 168 164 166 158 145 155
185 165 160 160 163 169 166 173 163 163 148 140 141 140 142 144 145 147 143 141 138 135 141 127 112 132 141 144 143 138 159 181 189 160 161 169 170 169 163 156 156 144
198 178 168 165 166 171 164 162 155 144 138 136 140 145 147 143 144 143 144 144 149 151 136 129 129 132 122 126 134 159 152 140 138 141 153 162 163 165 166 152 149 156
196 183 174 166 168 166 149 156 151 147 140 138 145 148 147 145 147 153 155 160 159 154 145 134 127 127 135 159 142 97 84 107 144 138 146 144 147 158 157 149 141 120
213 143 77 329 183 153 166 152 160 145 140 140 147 149 147 147 157 159 167 156 161 147 136 114 101 95 108 121 115 86 102 104 82 99 124 125 111 90 73 70 72 72
39 60 37 344 319 156 164 152 146 142 136 138 142 150 150 149 159 160 142 104 84 75 59 70 76 63 45 23 69 119 111 94 105 95 88 82 78 77 83 84 90 90
55 44 85 59 44 22 8 42 141 136 132 137 143 147 151 133 111 111 103 90 73 72 67 54 60 47 22 9 65 96 107 108 95 97 100 99 93 85 80 88 88 89
108 101 101 100 83 84 62 313 198 133 137 140 146 146 109 92 94 90 94 99 95 76 69 61 49 46 7 347 186 132 102 88 88 100 105 107 105 96 84 77 80 87
102 105 83 82 74 73 75 320 239 126 121 119 108 90 95 96 95 90 85 85 90 91 79 66 53 25 359 15 135 115 100 95 101 96 97 98 99 107 109 103 79 68
108 107 102 102 107 110 84 335 124 105 104 102 100 98 94 93 89 90 89 90 90 84 77 65 61 18 0 10 91 98 105 106 106 105 104 103 105 110 119 112 94 75
108 105 97 88 97 101 83 32 78 92 99 100 98 102 98 93 97 91 88 85 88 84 75 59 60 18 14 32 68 85 97 102 99 111 109 111 108 99 93 77 85 95
72 88 72 62 76 93 98 92 92 90 99 104 103 99 97 96 92 93 92 88 83 85 80 61 58 11 21 42 76 87 87 85 76 71 75 69 62 65 83 124 199 110
36 75 89 81 66 74 79 79 70 83 65 89 97 95 94 93 94 93 85 84 82 83 81 62 32 14 24 39 71 92 96 102 101 88 79 105 102 125 197 97 50 60
23 37 69 81 89 86 78 81 74 78 92 79 90 84 84 85 77 78 80 78 74 74 74 63 39 22 25 45 53 109 103 87 89 105 108 81 80 58 47 43 47 51
32 42 37 55 56 90 97 78 84 65 78 59 82 91 84 77 78 72 67 68 62 57 65 58 46 19 24 43 49 61 89 102 108 101 93 84 55 49 49 46 48 53
35 43 43 37 56 30 70 91 75 55 68 92 87 85 87 88 90 79 65 67 76 71 61 66 48 26 31 43 49 44 76 108 114 103 91 81 75 56 58 55 47 48
35 39 45 44 56 56 48 77 94 95 88 83 90 94 93 94 88 89 85 68 61 58 50 57 54 35 34 46 48 44 54 78 94 101 97 95 95 78 63 63 55 51
36 44 41 47 51 59 58 59 70 91 93 95 92 91 86 84 80 76 74 64 60 58 53 55 61 48 38 44 47 47 47 69 68 99 107 108 92 85 77 57 57 51